WJA817 CYUL-CYYZ

Flight info

Callsign WJA817
Flight time 0h 49m
Altitude 34000
Route BOBKI DCT MELTI DCT TORNI RAGID6
Aircraft B738/M-SDE2E3FGHIRWXY/LB1

Departure

Time 2026-05-08 00:59
Airport Montreal / Pierre Elliott Trudeau International Airport (CYUL)

Arrival

Time 2026-05-08 01:49
Airport Toronto Pearson International Airport (CYYZ)
Time Latitude Longitude Altitude Speed Heading
2026-05-08 00:44 45.45883 -73.74745 111 ft 0 kts 195°
2026-05-08 00:50 45.45888 -73.74743 111 ft 2 kts 195°
2026-05-08 00:50 45.45906 -73.74736 110 ft 3 kts 197°
2026-05-08 00:50 45.45925 -73.74728 113 ft 2 kts 196°
2026-05-08 00:50 45.45942 -73.74722 113 ft 3 kts 175°
2026-05-08 00:51 45.45959 -73.74729 112 ft 3 kts 135°
2026-05-08 00:51 45.45970 -73.74748 111 ft 2 kts 119°
2026-05-08 00:51 45.45971 -73.74750 111 ft 1 kts 119°
2026-05-08 00:53 45.45962 -73.74726 111 ft 3 kts 117°
2026-05-08 00:53 45.45951 -73.74635 115 ft 14 kts 83°
2026-05-08 00:53 45.45999 -73.74524 115 ft 13 kts 28°
2026-05-08 00:54 45.46090 -73.74517 113 ft 13 kts 347°
2026-05-08 00:54 45.46161 -73.74642 117 ft 22 kts 274°
2026-05-08 00:54 45.46156 -73.74860 114 ft 18 kts 269°
2026-05-08 00:54 45.46193 -73.74995 114 ft 15 kts 345°
2026-05-08 00:55 45.46306 -73.75003 115 ft 19 kts 357°
2026-05-08 00:55 45.46452 -73.75014 111 ft 23 kts 357°
2026-05-08 00:55 45.46612 -73.75020 111 ft 23 kts 356°
2026-05-08 00:55 45.46767 -73.75034 110 ft 22 kts 357°
2026-05-08 00:56 45.46917 -73.75033 113 ft 21 kts 11°
2026-05-08 00:56 45.47039 -73.74910 115 ft 24 kts 46°
2026-05-08 00:56 45.47172 -73.74719 119 ft 28 kts 44°
2026-05-08 00:56 45.47309 -73.74537 118 ft 26 kts 42°
2026-05-08 00:57 45.47440 -73.74365 115 ft 28 kts 42°
2026-05-08 00:57 45.47604 -73.74148 115 ft 32 kts 42°
2026-05-08 00:57 45.47770 -73.73934 122 ft 32 kts 42°
2026-05-08 00:57 45.47936 -73.73719 120 ft 34 kts 43°
2026-05-08 00:58 45.48105 -73.73497 116 ft 31 kts 43°
2026-05-08 00:58 45.48217 -73.73403 116 ft 16 kts 339°
2026-05-08 00:58 45.48271 -73.73535 116 ft 19 kts 281°
2026-05-08 00:58 45.48231 -73.73721 115 ft 28 kts 224°
2026-05-08 00:59 45.47940 -73.74102 119 ft 97 kts 223°
2026-05-08 00:59 45.47247 -73.75016 142 ft 171 kts 225°
2026-05-08 00:59 45.46360 -73.76213 1084 ft 175 kts 227°
2026-05-08 00:59 45.45504 -73.77358 2450 ft 166 kts 229°
2026-05-08 01:00 45.44644 -73.78541 3400 ft 181 kts 230°
2026-05-08 01:00 45.43883 -73.80040 4136 ft 194 kts 250°
2026-05-08 01:00 45.43603 -73.81929 4995 ft 197 kts 269°
2026-05-08 01:00 45.43566 -73.83890 5974 ft 199 kts 270°
2026-05-08 01:01 45.43525 -73.85913 6720 ft 213 kts 270°
2026-05-08 01:01 45.43506 -73.88195 6959 ft 253 kts 271°
2026-05-08 01:01 45.43508 -73.90876 7410 ft 281 kts 270°
2026-05-08 01:01 45.43493 -73.93588 9049 ft 263 kts 270°
2026-05-08 01:02 45.43465 -73.96198 9956 ft 272 kts 269°
2026-05-08 01:02 45.43416 -73.98938 10507 ft 282 kts 269°
2026-05-08 01:02 45.43348 -74.01652 11007 ft 293 kts 268°
2026-05-08 01:02 45.43257 -74.04603 11556 ft 303 kts 268°
2026-05-08 01:03 45.43152 -74.07656 12095 ft 314 kts 268°
2026-05-08 01:03 45.43035 -74.10806 12646 ft 323 kts 267°
2026-05-08 01:03 45.42909 -74.14045 13205 ft 332 kts 267°
2026-05-08 01:03 45.42778 -74.17326 13748 ft 340 kts 267°
2026-05-08 01:04 45.42639 -74.20725 14252 ft 348 kts 267°
2026-05-08 01:04 45.42495 -74.24196 14762 ft 355 kts 267°
2026-05-08 01:04 45.42347 -74.27736 15277 ft 361 kts 267°
2026-05-08 01:04 45.42195 -74.31331 15808 ft 366 kts 267°
2026-05-08 01:05 45.42041 -74.34974 16338 ft 371 kts 267°
2026-05-08 01:05 45.41883 -74.38666 16879 ft 376 kts 266°
2026-05-08 01:05 45.41708 -74.42390 17425 ft 379 kts 265°
2026-05-08 01:05 45.41265 -74.46113 17982 ft 383 kts 258°
2026-05-08 01:06 45.40629 -74.49808 18484 ft 386 kts 257°
2026-05-08 01:06 45.39975 -74.53523 18986 ft 388 kts 257°
2026-05-08 01:06 45.39323 -74.57258 19487 ft 390 kts 257°
2026-05-08 01:06 45.38678 -74.61003 19995 ft 391 kts 257°
2026-05-08 01:07 45.38036 -74.64771 20515 ft 392 kts 257°
2026-05-08 01:07 45.37398 -74.68541 21042 ft 393 kts 257°
2026-05-08 01:07 45.36758 -74.72328 21581 ft 394 kts 257°
2026-05-08 01:07 45.36117 -74.76119 22115 ft 395 kts 257°
2026-05-08 01:08 45.35474 -74.79914 22676 ft 395 kts 257°
2026-05-08 01:08 45.34828 -74.83717 23230 ft 395 kts 257°
2026-05-08 01:08 45.34179 -74.87520 23736 ft 395 kts 257°
2026-05-08 01:08 45.33528 -74.91313 24211 ft 395 kts 257°
2026-05-08 01:09 45.32876 -74.95096 24699 ft 394 kts 257°
2026-05-08 01:09 45.32223 -74.98873 25191 ft 393 kts 257°
2026-05-08 01:09 45.31595 -75.02504 25674 ft 392 kts 257°
2026-05-08 01:09 45.30944 -75.06254 26182 ft 391 kts 256°
2026-05-08 01:10 45.30294 -75.10000 26700 ft 390 kts 256°
2026-05-08 01:10 45.29646 -75.13725 27226 ft 388 kts 256°
2026-05-08 01:10 45.29006 -75.17392 27774 ft 386 kts 256°
2026-05-08 01:10 45.28362 -75.21083 28313 ft 384 kts 256°
2026-05-08 01:11 45.27720 -75.24752 28872 ft 382 kts 256°
2026-05-08 01:11 45.27080 -75.28401 29438 ft 380 kts 256°
2026-05-08 01:11 45.26442 -75.32028 30004 ft 377 kts 256°
2026-05-08 01:11 45.25810 -75.35620 30468 ft 374 kts 256°
2026-05-08 01:12 45.25181 -75.39183 30951 ft 371 kts 256°
2026-05-08 01:12 45.24556 -75.42719 31442 ft 367 kts 256°
2026-05-08 01:12 45.23938 -75.46212 31924 ft 363 kts 255°
2026-05-08 01:12 45.23324 -75.49669 32410 ft 359 kts 255°
2026-05-08 01:13 45.22719 -75.53077 32917 ft 354 kts 255°
2026-05-08 01:13 45.22119 -75.56445 33432 ft 349 kts 255°
2026-05-08 01:13 45.21526 -75.59767 33857 ft 347 kts 255°
2026-05-08 01:14 45.20313 -75.66542 33874 ft 361 kts 255°
2026-05-08 01:14 45.19054 -75.73549 33881 ft 373 kts 255°
2026-05-08 01:15 45.17750 -75.80781 33880 ft 385 kts 255°
2026-05-08 01:15 45.16401 -75.88235 33880 ft 396 kts 255°
2026-05-08 01:16 45.15010 -75.95887 33886 ft 406 kts 255°
2026-05-08 01:16 45.13604 -76.03589 33880 ft 416 kts 255°
2026-05-08 01:17 45.12146 -76.11550 33856 ft 424 kts 255°
2026-05-08 01:17 45.10657 -76.19642 33864 ft 424 kts 255°
2026-05-08 01:18 45.08494 -76.27321 33907 ft 422 kts 242°
2026-05-08 01:18 45.05573 -76.34532 33884 ft 422 kts 242°
2026-05-08 01:19 45.02693 -76.41746 33888 ft 421 kts 242°
2026-05-08 01:19 44.99826 -76.48976 33883 ft 421 kts 242°
2026-05-08 01:20 44.96962 -76.56200 33875 ft 422 kts 242°
2026-05-08 01:20 44.94093 -76.63420 33892 ft 422 kts 242°
2026-05-08 01:21 44.91216 -76.70638 33892 ft 422 kts 242°
2026-05-08 01:21 44.88328 -76.77863 33895 ft 423 kts 242°
2026-05-08 01:22 44.85431 -76.85096 33898 ft 424 kts 242°
2026-05-08 01:22 44.82526 -76.92330 33876 ft 424 kts 242°
2026-05-08 01:23 44.79617 -76.99549 33902 ft 423 kts 242°
2026-05-08 01:23 44.76760 -77.06620 33901 ft 423 kts 242°
2026-05-08 01:24 44.73864 -77.13774 33905 ft 424 kts 242°
2026-05-08 01:24 44.70944 -77.20971 33902 ft 424 kts 242°
2026-05-08 01:25 44.68017 -77.28168 33863 ft 424 kts 242°
2026-05-08 01:25 44.66547 -77.31776 33472 ft 425 kts 242°
2026-05-08 01:25 44.65088 -77.35352 33012 ft 419 kts 242°
2026-05-08 01:25 44.64131 -77.37693 32720 ft 415 kts 242°
2026-05-08 01:26 44.62702 -77.41188 32277 ft 410 kts 242°
2026-05-08 01:26 44.61289 -77.44638 31853 ft 406 kts 242°
2026-05-08 01:26 44.59891 -77.48050 31431 ft 400 kts 242°
2026-05-08 01:26 44.58502 -77.51436 31012 ft 402 kts 242°
2026-05-08 01:27 44.57102 -77.54848 30621 ft 406 kts 242°
2026-05-08 01:27 44.55681 -77.58307 30226 ft 412 kts 242°
2026-05-08 01:27 44.54244 -77.61798 29799 ft 413 kts 242°
2026-05-08 01:27 44.52804 -77.65289 29303 ft 413 kts 242°
2026-05-08 01:28 44.51365 -77.68774 28805 ft 414 kts 242°
2026-05-08 01:28 44.49920 -77.72263 28327 ft 413 kts 242°
2026-05-08 01:28 44.48476 -77.75745 27861 ft 413 kts 242°
2026-05-08 01:28 44.47033 -77.79220 27400 ft 414 kts 242°
2026-05-08 01:29 44.45584 -77.82706 26951 ft 414 kts 242°
2026-05-08 01:29 44.44133 -77.86194 26493 ft 416 kts 242°
2026-05-08 01:29 44.42672 -77.89706 26067 ft 418 kts 241°
2026-05-08 01:29 44.41201 -77.93235 25640 ft 422 kts 241°
2026-05-08 01:30 44.39715 -77.96796 25216 ft 424 kts 241°
2026-05-08 01:30 44.38285 -78.00219 24805 ft 422 kts 241°
2026-05-08 01:30 44.36819 -78.03722 24356 ft 415 kts 241°
2026-05-08 01:30 44.35368 -78.07183 23826 ft 410 kts 241°
2026-05-08 01:31 44.33929 -78.10607 23236 ft 407 kts 241°
2026-05-08 01:31 44.32499 -78.14004 22593 ft 404 kts 241°
2026-05-08 01:31 44.31080 -78.17371 21950 ft 401 kts 241°
2026-05-08 01:31 44.29669 -78.20715 21328 ft 398 kts 241°
2026-05-08 01:32 44.28271 -78.24027 20719 ft 395 kts 241°
2026-05-08 01:32 44.26883 -78.27310 20125 ft 390 kts 241°
2026-05-08 01:32 44.25527 -78.30514 19511 ft 378 kts 241°
2026-05-08 01:32 44.24209 -78.33624 18914 ft 367 kts 241°
2026-05-08 01:33 44.22925 -78.36652 18321 ft 359 kts 241°
2026-05-08 01:33 44.21668 -78.39615 17658 ft 351 kts 241°
2026-05-08 01:33 44.20439 -78.42509 17008 ft 344 kts 241°
2026-05-08 01:33 44.19233 -78.45345 16359 ft 337 kts 241°
2026-05-08 01:34 44.18048 -78.48129 15728 ft 331 kts 241°
2026-05-08 01:34 44.16884 -78.50862 15107 ft 325 kts 241°
2026-05-08 01:34 44.15738 -78.53551 14525 ft 320 kts 242°
2026-05-08 01:34 44.14614 -78.56184 13978 ft 314 kts 242°
2026-05-08 01:35 44.13507 -78.58776 13397 ft 308 kts 242°
2026-05-08 01:35 44.12422 -78.61315 12796 ft 303 kts 242°
2026-05-08 01:35 44.11353 -78.63812 12203 ft 298 kts 242°
2026-05-08 01:35 44.10299 -78.66275 11626 ft 294 kts 242°
2026-05-08 01:36 44.09259 -78.68702 11059 ft 290 kts 242°
2026-05-08 01:36 44.08231 -78.71101 10494 ft 287 kts 242°
2026-05-08 01:36 44.07214 -78.73472 9941 ft 284 kts 242°
2026-05-08 01:36 44.06209 -78.75811 9352 ft 281 kts 242°
2026-05-08 01:37 44.05225 -78.78099 8754 ft 278 kts 242°
2026-05-08 01:37 44.04230 -78.80388 8161 ft 276 kts 239°
2026-05-08 01:37 44.03024 -78.82512 7587 ft 276 kts 231°
2026-05-08 01:37 44.01713 -78.84449 7164 ft 271 kts 229°
2026-05-08 01:38 44.00447 -78.86275 7034 ft 255 kts 229°
2026-05-08 01:38 43.99282 -78.87966 6994 ft 237 kts 230°
2026-05-08 01:38 43.98185 -78.89574 6980 ft 224 kts 230°
2026-05-08 01:38 43.97129 -78.91137 6992 ft 222 kts 230°
2026-05-08 01:39 43.96066 -78.92720 7004 ft 225 kts 231°
2026-05-08 01:39 43.95000 -78.94310 7006 ft 225 kts 231°
2026-05-08 01:39 43.93932 -78.95905 7012 ft 226 kts 231°
2026-05-08 01:39 43.92864 -78.97502 7005 ft 226 kts 231°
2026-05-08 01:40 43.91795 -78.99101 7010 ft 226 kts 231°
2026-05-08 01:40 43.90771 -79.00630 7004 ft 226 kts 231°
2026-05-08 01:40 43.89703 -79.02225 6998 ft 225 kts 231°
2026-05-08 01:40 43.88636 -79.03818 6992 ft 225 kts 231°
2026-05-08 01:41 43.87576 -79.05448 6989 ft 223 kts 238°
2026-05-08 01:41 43.87047 -79.07403 7011 ft 217 kts 262°
2026-05-08 01:41 43.86981 -79.09495 7008 ft 218 kts 271°
2026-05-08 01:41 43.87040 -79.11569 7001 ft 219 kts 272°
2026-05-08 01:42 43.87111 -79.13682 7009 ft 220 kts 272°
2026-05-08 01:42 43.87170 -79.15803 7011 ft 221 kts 268°
2026-05-08 01:42 43.86776 -79.17850 6934 ft 224 kts 247°
2026-05-08 01:42 43.86096 -79.19875 6478 ft 236 kts 247°
2026-05-08 01:43 43.85406 -79.21971 6081 ft 241 kts 247°
2026-05-08 01:43 43.84732 -79.24047 6015 ft 231 kts 248°
2026-05-08 01:43 43.84095 -79.26035 5991 ft 223 kts 248°
2026-05-08 01:43 43.83475 -79.27986 6006 ft 220 kts 248°
2026-05-08 01:44 43.82858 -79.29941 5866 ft 227 kts 248°
2026-05-08 01:44 43.82213 -79.31990 5451 ft 235 kts 248°
2026-05-08 01:44 43.81557 -79.34082 5065 ft 239 kts 248°
2026-05-08 01:44 43.80890 -79.36208 4681 ft 243 kts 248°
2026-05-08 01:45 43.80212 -79.38370 4286 ft 246 kts 248°
2026-05-08 01:45 43.79527 -79.40552 4034 ft 244 kts 248°
2026-05-08 01:45 43.78866 -79.42654 4026 ft 231 kts 247°
2026-05-08 01:45 43.78065 -79.44480 3999 ft 215 kts 228°
2026-05-08 01:46 43.77053 -79.45877 3972 ft 198 kts 227°
2026-05-08 01:46 43.76095 -79.47264 3517 ft 202 kts 230°
2026-05-08 01:46 43.75163 -79.48692 3148 ft 201 kts 229°
2026-05-08 01:46 43.74222 -79.50129 2771 ft 201 kts 229°
2026-05-08 01:47 43.73258 -79.51553 2295 ft 204 kts 229°
2026-05-08 01:47 43.72306 -79.52941 1913 ft 194 kts 227°
2026-05-08 01:47 43.71361 -79.54212 1565 ft 185 kts 226°
2026-05-08 01:48 43.69726 -79.56564 1129 ft 154 kts 227°
2026-05-08 01:48 43.68971 -79.57631 958 ft 158 kts 227°
2026-05-08 01:48 43.68221 -79.58736 785 ft 157 kts 227°
2026-05-08 01:48 43.67487 -79.59787 596 ft 146 kts 227°
2026-05-08 01:49 43.66836 -79.60720 568 ft 117 kts 227°
2026-05-08 01:49 43.66458 -79.61317 572 ft 48 kts 236°
2026-05-08 01:49 43.66378 -79.61649 570 ft 31 kts 276°
2026-05-08 01:49 43.66408 -79.61734 567 ft 1 kts 309°
2026-05-08 01:50 43.66509 -79.61867 565 ft 26 kts 316°
2026-05-08 01:50 43.66650 -79.62014 558 ft 25 kts 360°
2026-05-08 01:50 43.66776 -79.61875 557 ft 23 kts 44°
2026-05-08 01:50 43.66892 -79.61729 558 ft 22 kts 40°
2026-05-08 01:51 43.67004 -79.61586 564 ft 22 kts 44°
2026-05-08 01:51 43.67114 -79.61448 562 ft 22 kts 43°
2026-05-08 01:51 43.67223 -79.61297 560 ft 21 kts 37°
2026-05-08 01:51 43.67348 -79.61352 556 ft 21 kts 317°
2026-05-08 01:52 43.67451 -79.61486 567 ft 20 kts 316°
2026-05-08 01:52 43.67549 -79.61618 561 ft 19 kts 317°
2026-05-08 01:52 43.67646 -79.61743 564 ft 19 kts 316°
2026-05-08 01:52 43.67739 -79.61867 562 ft 18 kts 316°
2026-05-08 01:53 43.67830 -79.61983 562 ft 17 kts 318°
2026-05-08 01:53 43.67917 -79.62058 566 ft 13 kts
2026-05-08 01:53 43.67965 -79.62026 566 ft 12 kts 37°
2026-05-08 01:53 43.68033 -79.61936 566 ft 13 kts 47°
2026-05-08 01:54 43.68097 -79.61846 566 ft 13 kts 36°
2026-05-08 01:54 43.68181 -79.61819 568 ft 13 kts 357°
2026-05-08 01:54 43.68266 -79.61833 565 ft 12 kts 352°
2026-05-08 01:54 43.68307 -79.61866 568 ft 4 kts 291°
2026-05-08 01:55 43.68310 -79.61912 563 ft 5 kts 278°
2026-05-08 01:55 43.68315 -79.61936 563 ft 1 kts 288°
2026-05-08 01:55 43.68317 -79.61942 563 ft 0 kts 288°